Vorticity
nan nan nan nan nan nan nan nan nan nan nan nan nan nan nan nan nan nan nan nan nan nan nan nan nan nan nan nan nan nan nan nan nan nan nan nan nan nan nan nan nan nan nan
nan 13 10 6 5 5 5 5 4 4 4 4 3 4 4 6 5 7 6 7 7 6 7 7 8 4 2 2 5 5 5 4 3 3 3 4 7 6 3 7 8 9 nan
nan 9 10 8 6 6 5 4 4 4 4 5 4 5 7 5 5 5 4 8 8 3 5 6 8 3 3 7 10 5 5 4 3 3 5 5 7 7 5 4 6 11 nan
nan 7 10 10 6 5 5 4 4 4 4 4 4 7 7 4 6 4 5 4 5 5 5 6 8 7 5 8 6 4 6 4 4 6 9 7 7 7 6 5 3 3 nan
nan 7 9 10 8 8 3 4 4 5 5 4 5 7 6 5 5 5 6 5 5 6 6 7 3 6 7 3 5 3 3 5 5 8 10 8 5 7 7 6 5 3 nan
nan 7 9 8 9 7 4 4 5 5 5 5 4 4 8 5 1 2 3 6 6 6 4 6 5 3 4 5 6 3 1 5 6 6 9 9 6 5 5 6 6 5 nan
nan 6 10 11 8 4 4 4 4 5 5 5 5 8 9 7 4 7 4 5 5 5 5 5 6 4 4 4 4 4 4 7 5 5 7 8 5 7 6 5 5 5 nan
nan 6 9 12 8 5 5 5 4 5 5 4 6 8 6 8 11 8 6 3 5 5 5 5 6 6 6 5 4 6 7 5 6 6 7 9 6 7 5 5 4 4 nan
nan 7 7 10 11 10 8 6 6 5 6 6 6 1 3 4 9 5 6 7 5 6 6 5 5 5 6 6 6 6 6 6 7 6 7 8 7 5 5 5 5 4 nan
nan 6 7 7 8 8 10 10 7 6 6 6 6 9 7 5 5 5 7 8 5 6 7 6 5 5 6 7 8 8 8 11 6 7 7 4 7 6 6 6 5 5 nan
nan 7 7 7 7 7 7 10 10 9 8 6 7 11 7 6 7 7 8 7 6 6 7 7 6 6 8 11 11 10 13 11 8 7 8 2 6 7 5 5 6 6 nan
nan 8 7 7 7 7 7 8 8 9 8 9 9 8 7 7 7 8 8 8 9 10 11 11 11 12 11 11 9 11 12 7 9 8 6 5 6 7 6 6 6 7 nan
nan 8 8 7 7 7 7 7 7 8 8 8 8 7 7 7 7 7 8 9 10 11 11 11 13 12 9 6 7 9 6 8 8 8 6 6 7 8 7 6 7 7 nan
nan 6 7 7 6 6 6 7 7 7 7 7 9 8 7 7 7 7 7 7 7 8 7 8 8 7 7 7 7 6 6 6 6 7 10 8 7 7 8 7 6 7 nan
nan 8 8 7 6 8 5 6 7 7 7 8 8 8 7 7 7 8 7 7 7 7 8 7 7 7 7 8 7 8 6 7 5 5 9 14 8 7 8 8 8 6 nan
nan 9 10 8 9 7 7 6 6 7 8 7 8 8 7 7 7 6 7 7 7 8 6 8 7 7 7 8 7 8 8 7 7 6 6 13 14 9 8 8 8 7 nan
nan 13 11 10 11 8 7 7 7 7 8 7 8 9 8 7 6 7 7 7 8 8 8 8 8 8 8 8 8 8 10 8 7 8 6 7 15 17 12 8 8 9 nan
nan 11 16 15 10 8 8 8 8 8 7 8 9 9 9 8 7 7 7 6 9 8 9 8 8 9 8 7 9 9 9 9 8 8 6 7 7 12 17 14 11 10 nan
nan 9 14 17 14 10 9 9 10 8 7 8 8 8 8 9 8 7 7 8 9 9 8 8 8 7 6 8 8 7 8 9 9 9 9 8 7 5 10 16 17 16 nan
nan 10 10 12 14 15 11 9 9 8 9 9 9 9 8 9 9 8 7 9 8 8 7 8 7 7 8 7 8 10 10 8 8 9 9 10 10 8 7 9 13 19 nan
nan 9 10 10 14 14 10 9 9 9 10 10 9 12 13 12 12 11 9 9 9 8 7 7 10 9 10 11 10 11 12 12 10 9 10 10 9 11 9 8 7 8 nan
nan 7 9 8 13 13 11 9 9 9 9 8 7 9 11 13 13 13 12 11 11 10 10 11 9 9 9 8 7 8 11 12 13 11 10 10 9 10 11 10 8 7 nan
nan 9 8 8 8 10 12 13 11 9 8 7 7 6 7 8 8 10 11 11 11 11 11 10 11 10 9 10 10 8 5 3 10 13 11 12 11 8 9 11 11 9 nan
nan 9 7 9 9 8 12 12 11 11 8 8 8 7 6 6 7 8 8 9 10 8 8 9 9 10 10 11 14 12 6 6 7 10 9 9 10 11 10 9 11 11 nan
nan 9 8 8 8 9 11 11 9 10 9 10 8 8 8 7 6 6 8 9 9 9 8 7 6 11 10 9 9 9 11 12 10 7 6 8 9 11 11 10 10 11 nan
nan nan nan nan nan nan nan nan nan nan nan nan nan nan nan nan nan nan nan nan nan nan nan nan nan nan nan nan nan nan nan nan nan nan nan nan nan nan nan nan nan nan nan
CAPE
0 0 471 949 408 423 413 152 43 22 0 0 0 1 4 3 0 0 6 15 13 9 4 0 0 66 56 49 40 21 0 0 0 0 0 0 10 30 17 23 2 0 0
1 0 652 958 642 544 285 155 23 1 0 0 0 3 8 11 13 0 7 21 4 1 3 0 0 28 22 20 17 19 6 0 0 0 0 0 4 18 1 11 29 18 22
4 9 384 1046 747 632 355 233 23 1 0 0 0 0 16 25 32 14 20 24 24 9 2 5 0 7 4 32 36 21 9 0 0 0 0 0 0 0 2 12 46 51 43
19 69 254 965 770 583 484 250 36 4 0 0 0 1 54 35 10 6 6 1 6 1 1 1 4 1 4 16 55 16 3 0 0 0 0 0 0 3 12 1 23 28 26
91 165 243 961 896 750 464 224 64 0 0 0 0 0 52 20 21 31 6 1 0 0 1 0 11 10 1 3 7 14 4 0 0 0 0 0 0 3 10 3 9 6 0
98 158 286 947 991 690 449 213 64 0 1 0 0 13 54 38 22 30 7 0 2 0 0 0 10 6 7 0 0 6 8 0 0 0 0 0 0 0 4 0 0 0 0
93 123 232 744 997 639 496 286 81 0 0 0 17 22 36 53 34 11 0 0 0 0 1 1 0 5 3 1 0 2 9 4 0 0 0 0 0 0 4 1 0 0 0
86 144 274 939 1074 881 522 304 122 0 0 0 6 15 16 18 38 2 0 0 0 4 6 8 6 1 1 9 8 8 12 24 0 0 0 0 0 0 13 7 0 0 0
42 156 342 678 796 834 682 506 289 20 5 0 2 14 9 13 6 3 2 9 3 12 22 32 25 19 6 3 5 9 18 23 0 0 0 0 0 0 16 9 4 0 0
14 112 260 424 527 438 352 513 426 303 88 48 43 26 9 4 0 5 12 18 0 11 33 30 35 27 17 5 1 7 18 18 1 0 0 0 0 0 9 10 5 1 0
7 67 166 268 312 225 103 62 359 264 78 30 12 8 4 0 0 0 0 0 4 8 15 32 43 32 35 19 0 0 4 0 0 0 0 0 0 0 7 22 16 10 2
2 50 107 130 113 46 82 1 2 0 0 0 0 0 0 0 0 0 0 0 0 17 17 12 20 36 28 0 0 0 0 0 0 0 0 0 0 0 3 14 21 22 13
0 5 51 25 1 0 1 0 0 0 0 0 0 0 0 0 0 0 0 0 0 0 0 0 0 0 0 0 0 0 0 0 0 0 0 0 0 0 0 3 14 40 29
0 0 4 2 0 0 0 0 0 0 0 0 0 0 0 0 0 0 0 0 0 0 0 0 0 0 0 0 0 0 0 0 0 0 0 0 0 0 0 0 5 31 139
0 0 0 0 0 0 0 0 0 0 0 0 0 0 0 0 0 0 0 0 0 0 0 0 0 0 0 0 0 0 0 0 0 0 0 0 0 0 0 0 0 5 21
0 0 0 0 0 0 0 0 0 0 0 0 0 0 0 0 0 0 0 0 0 0 0 0 0 0 0 0 0 0 0 0 0 0 0 0 0 0 0 0 0 0 2
0 0 0 0 0 0 0 0 0 0 0 0 0 0 0 0 0 0 0 0 0 0 0 0 0 0 0 0 0 0 0 0 0 0 0 0 0 0 0 0 0 0 0
0 0 0 0 0 0 0 0 0 0 0 0 0 0 0 0 0 0 0 0 0 0 0 0 0 0 0 0 0 0 0 0 0 0 0 0 0 0 0 0 0 0 0
0 0 0 0 0 0 0 0 0 0 0 0 0 0 0 0 0 0 0 0 0 0 0 0 0 0 0 0 0 0 0 0 0 0 0 0 0 0 0 0 0 0 0
0 0 0 0 0 0 0 0 0 0 0 0 0 0 0 0 0 0 0 0 0 0 0 0 0 0 0 0 0 0 0 0 0 0 0 0 0 0 0 0 0 0 0
0 0 0 0 0 0 0 0 0 0 0 0 0 0 0 0 0 0 0 0 0 0 0 0 0 0 0 0 0 0 0 0 0 0 0 0 0 0 0 0 0 0 0
0 0 0 0 0 0 0 0 0 0 0 0 0 0 0 0 0 0 0 0 0 0 0 0 0 0 0 0 0 0 0 1 0 0 0 0 0 0 0 0 0 0 0
0 0 0 0 0 0 0 0 0 0 0 0 0 0 0 0 0 0 0 0 0 0 0 0 0 7 12 1 0 0 9 36 39 5 0 0 0 0 0 0 0 0 0
0 0 0 0 0 0 0 0 0 0 0 0 0 0 0 0 0 0 0 0 0 0 0 0 0 0 5 20 21 26 20 25 53 30 26 0 0 0 0 0 0 0 0
0 0 0 0 0 0 0 0 0 0 0 0 0 0 0 0 0 0 0 0 0 0 0 0 0 0 0 0 0 1 4 0 6 37 12 1 0 10 1 0 0 0 0
0 0 0 0 0 0 0 0 0 0 0 0 0 0 0 0 0 0 0 0 0 0 0 0 0 0 0 0 0 0 0 7 11 18 15 6 9 1 1 9 11 0 0